DM5RC Weather Reports


Display with metric or nautical units.
time (UTC)temp
F
wind
direction
speed
MPH
gust
MPH
rain 1hr
in
rain 24hr
in
rain mn
in
humidity
%
barometer
mb
20260902194314 62 120 0.0 0.0 0.00 0.00 0.00 88 1018.2
20260902193817 62 120 0.0 0.0 0.00 0.00 0.00 88 1018.2
20260902193318 62 120 0.0 0.0 0.00 0.00 0.00 87 1018.2
20260902192819 62 120 0.0 0.0 0.00 0.00 0.00 87 1018.2
20260902192321 62 120 0.0 0.0 0.00 0.00 0.00 87 1018.2
20260902191820 63 120 0.0 0.0 0.00 0.00 0.00 87 1018.2
20260902191341 63 120 0.0 0.0 0.00 0.00 0.00 87 1018.2
20260902190841 63 120 0.0 0.0 0.00 0.00 0.00 86 1018.2
20260902190321 63 120 0.0 0.0 0.00 0.00 0.00 85 1018.2
20260902185822 64 120 0.0 0.0 0.00 0.00 0.00 84 1018.2
20260902185322 64 120 0.0 0.0 0.00 0.00 0.00 84 1018.1
20260902184823 65 120 0.0 0.0 0.00 0.00 0.00 84 1018.2
20260902184324 65 120 0.0 0.0 0.00 0.00 0.00 83 1018.1
20260902183842 65 120 0.0 0.0 0.00 0.00 0.00 82 1018.2
20260902183322 66 120 0.0 0.0 0.00 0.00 0.00 81 1018.1
20260902182844 66 120 0.0 0.0 0.00 0.00 0.00 81 1018.1
20260902182326 66 120 0.0 0.0 0.00 0.00 0.00 81 1017.9
20260902181849 66 120 0.0 0.0 0.00 0.00 0.00 81 1018.0
20260902181331 67 120 0.0 0.0 0.00 0.00 0.00 81 1017.9
20260902180813 67 120 0.0 0.0 0.00 0.00 0.00 81 1017.7
20260902180315 67 120 0.0 0.0 0.00 0.00 0.00 80 1017.7
20260902175816 67 120 0.0 1.0 0.00 0.00 0.00 80 1017.7
20260902175317 68 120 0.0 1.0 0.00 0.00 0.00 79 1017.7
20260902174817 68 120 0.0 1.0 0.00 0.00 0.00 78 1017.7
20260902174319 68 120 0.0 1.0 0.00 0.00 0.00 77 1017.6
20260902173821 69 120 0.0 0.0 0.00 0.00 0.00 76 1017.7
20260902173324 69 120 0.0 0.0 0.00 0.00 0.00 75 1017.6
20260902172826 69 120 0.0 0.0 0.00 0.00 0.00 74 1017.7
20260902172329 69 120 0.0 0.0 0.00 0.00 0.00 73 1017.7
20260902171812 70 120 0.0 1.0 0.00 0.00 0.00 73 1017.6
20260902171313 70 120 0.0 1.0 0.00 0.00 0.00 71 1017.6
20260902170813 70 120 0.0 1.0 0.00 0.00 0.00 69 1017.6
20260902170318 70 120 0.0 2.0 0.00 0.00 0.00 71 1017.5
20260902165841 70 120 1.0 2.0 0.00 0.04 0.00 72 1017.5
20260902165331 71 136 1.0 2.0 0.00 0.04 0.00 69 1017.5
20260902164813 71 13 0.0 2.0 0.00 0.04 0.00 68 1017.6
20260902164314 71 13 0.0 2.0 0.00 0.04 0.00 67 1017.6
20260902163814 71 13 0.0 1.0 0.00 0.04 0.00 68 1017.6
20260902163316 71 13 0.0 0.0 0.00 0.04 0.00 67 1017.7
20260902162838 71 13 0.0 0.0 0.00 0.04 0.00 66 1017.8
20260902162318 71 13 0.0 0.0 0.00 0.04 0.00 65 1017.8
20260902161838 72 13 0.0 0.0 0.00 0.04 0.00 62 1017.9
20260902161316 71 13 0.0 1.0 0.00 0.04 0.00 62 1017.9
20260902160816 72 13 0.0 1.0 0.00 0.04 0.00 64 1018.0
20260902160319 72 13 0.0 2.0 0.00 0.04 0.00 63 1018.0
20260902155822 72 276 0.0 2.0 0.00 0.04 0.00 63 1018.1
20260902155326 72 274 0.0 2.0 0.00 0.04 0.00 63 1018.1
20260902154828 72 274 1.0 2.0 0.00 0.04 0.00 63 1018.2
20260902154332 72 284 1.0 2.0 0.00 0.04 0.00 62 1018.2
20260902153816 72 312 0.0 2.0 0.00 0.04 0.00 62 1018.2
20260902153338 72 304 1.0 2.0 0.00 0.04 0.00 62 1018.3
20260902152817 72 299 0.0 4.0 0.00 0.04 0.00 62 1018.3
20260902152317 72 328 2.0 4.0 0.00 0.04 0.00 63 1018.3
20260902151817 72 357 2.0 4.0 0.00 0.04 0.00 62 1018.3
20260902151337 73 278 1.0 4.0 0.00 0.04 0.00 61 1018.3
20260902150817 73 323 2.0 4.0 0.00 0.04 0.00 60 1018.4
20260902150318 73 39 1.0 5.0 0.00 0.04 0.00 61 1018.4
20260902145819 72 265 2.0 5.0 0.00 0.04 0.00 63 1018.4
20260902145342 72 321 2.0 5.0 0.00 0.04 0.00 62 1018.5
20260902144823 72 4 2.0 5.0 0.00 0.04 0.00 63 1018.5
20260902144326 71 316 2.0 7.0 0.00 0.04 0.00 64 1018.5
20260902143828 72 354 3.0 7.0 0.00 0.04 0.00 63 1018.5
20260902143322 72 355 3.0 7.0 0.00 0.04 0.00 62 1018.6
20260902142823 72 303 3.0 7.0 0.00 0.04 0.00 62 1018.6
20260902142324 72 273 1.0 7.0 0.00 0.04 0.00 62 1018.6
20260902141827 73 22 4.0 7.0 0.00 0.04 0.00 61 1018.5
20260902141330 73 266 2.0 10.0 0.00 0.04 0.00 60 1018.5
20260902140813 73 262 5.0 10.0 0.00 0.04 0.00 59 1018.5
20260902140315 73 266 5.0 9.0 0.00 0.04 0.00 59 1018.6
20260902135837 72 278 4.0 8.0 0.00 0.04 0.00 61 1018.6
20260902135319 73 208 4.0 8.0 0.00 0.04 0.00 60 1018.6
20260902134820 73 236 3.0 9.0 0.00 0.04 0.00 60 1018.6
20260902134323 73 274 4.0 10.0 0.00 0.04 0.00 60 1018.6
20260902133824 73 254 4.0 10.0 0.00 0.04 0.00 60 1018.7
20260902133327 73 267 4.0 8.0 0.00 0.04 0.00 60 1018.8
20260902132829 72 277 5.0 9.0 0.00 0.04 0.00 61 1018.8
20260902132331 72 285 5.0 9.0 0.00 0.04 0.00 62 1018.8
20260902131834 72 250 2.0 7.0 0.00 0.04 0.00 62 1018.8
20260902131316 72 258 4.0 8.0 0.00 0.04 0.00 61 1018.8
20260902130821 72 273 4.0 8.0 0.00 0.04 0.00 60 1018.8
20260902130321 72 242 3.0 9.0 0.00 0.04 0.00 61 1018.8
20260902125842 72 207 3.0 9.0 0.00 0.04 0.00 62 1018.8
20260902125317 71 278 4.0 9.0 0.00 0.04 0.00 63 1018.9
20260902124820 71 259 4.0 9.0 0.00 0.04 0.00 62 1019.0
20260902124323 71 265 4.0 9.0 0.00 0.04 0.00 63 1019.0
20260902123824 71 281 4.0 8.0 0.00 0.04 0.00 63 1019.0
20260902123329 71 255 4.0 10.0 0.00 0.04 0.00 64 1019.1
20260902122813 71 252 4.0 10.0 0.00 0.04 0.00 64 1019.1
20260902122318 70 275 4.0 10.0 0.00 0.04 0.00 64 1019.1
20260902121823 71 225 7.0 11.0 0.00 0.04 0.00 63 1019.2
20260902121328 71 263 5.0 11.0 0.00 0.04 0.00 64 1019.2
20260902120316 70 278 2.0 8.0 0.00 0.04 0.00 64 1019.2
20260902115817 70 219 5.0 9.0 0.00 0.04 0.00 64 1019.2
20260902115347 70 257 2.0 7.0 0.00 0.04 0.00 65 1019.3
20260902114812 70 258 2.0 7.0 0.00 0.04 0.00 65 1019.2
20260902114317 70 222 4.0 9.0 0.00 0.04 0.00 63 1019.3
20260902113817 71 202 4.0 9.0 0.00 0.04 0.00 63 1019.3
20260902113337 70 245 2.0 10.0 0.00 0.04 0.00 63 1019.4
20260902112817 70 283 6.0 12.0 0.00 0.04 0.00 62 1019.4
20260902112318 71 242 3.0 7.0 0.00 0.04 0.00 63 1019.4
20260902111818 71 274 4.0 8.0 0.00 0.04 0.00 62 1019.4
20260902111319 71 274 4.0 8.0 0.00 0.04 0.00 62 1019.6
20260902110820 71 281 2.0 11.0 0.00 0.04 0.00 62 1019.5
20260902110321 71 279 1.0 11.0 0.00 0.04 0.00 64 1019.5
20260902105824 71 3 3.0 7.0 0.00 0.04 0.00 63 1019.5
20260902105327 71 250 2.0 6.0 0.00 0.04 0.00 64 1019.5
20260902104829 71 345 4.0 7.0 0.00 0.04 0.00 64 1019.6
20260902104330 71 266 2.0 7.0 0.00 0.04 0.00 64 1019.7
20260902103830 70 248 3.0 7.0 0.00 0.04 0.00 64 1019.7
20260902103330 70 264 3.0 6.0 0.00 0.04 0.00 65 1019.7
20260902102831 70 231 2.0 8.0 0.00 0.04 0.00 65 1019.7
20260902102348 70 262 3.0 8.0 0.00 0.04 0.00 65 1019.8
20260902101813 70 283 3.0 6.0 0.00 0.04 0.00 65 1019.8
20260902101316 70 274 3.0 9.0 0.00 0.04 0.00 65 1019.8
20260902100819 70 219 4.0 9.0 0.00 0.04 0.00 65 1019.8
20260902100322 70 267 5.0 12.0 0.00 0.04 0.00 64 1019.9
20260902095825 70 273 3.0 12.0 0.00 0.04 0.00 66 1019.9
20260902095344 70 276 3.0 6.0 0.00 0.04 0.00 66 1020.0
20260902094826 69 273 3.0 5.0 0.00 0.04 0.00 68 1020.0
20260902094329 69 267 2.0 6.0 0.00 0.04 0.00 68 1020.0
20260902093852 69 282 3.0 7.0 0.00 0.04 0.00 67 1019.9
20260902093334 69 255 4.0 7.0 0.00 0.04 0.00 67 1020.1
20260902092815 69 284 3.0 8.0 0.00 0.04 0.00 68 1020.1
20260902092339 69 252 3.0 9.0 0.00 0.04 0.00 68 1020.2
20260902091823 69 243 5.0 9.0 0.00 0.04 0.00 68 1020.1
20260902091324 69 255 3.0 8.0 0.00 0.04 0.00 70 1020.1
20260902090849 68 207 4.0 10.0 0.00 0.04 0.00 70 1020.2
20260902090330 69 274 2.0 7.0 0.00 0.04 0.00 70 1020.2
20260902085835 68 274 3.0 7.0 0.00 0.04 0.00 69 1020.2
20260902085315 68 284 2.0 6.0 0.00 0.04 0.00 70 1020.2
20260902084816 68 263 2.0 5.0 0.00 0.04 0.00 71 1020.1
20260902084318 67 219 2.0 6.0 0.00 0.04 0.00 71 1020.1
20260902083818 67 267 1.0 7.0 0.00 0.04 0.00 72 1020.1
20260902083318 67 269 4.0 7.0 0.00 0.04 0.00 72 1020.2
20260902082819 67 321 1.0 5.0 0.00 0.04 0.00 72 1020.1
20260902082319 66 339 2.0 6.0 0.00 0.04 0.00 74 1020.2
20260902081819 66 219 3.0 7.0 0.00 0.04 0.00 75 1020.0
20260902081320 65 331 2.0 7.0 0.00 0.04 0.00 77 1020.1
20260902080315 65 196 1.0 5.0 0.00 0.04 0.00 77 1020.1
20260902075815 65 217 2.0 6.0 0.00 0.04 0.00 78 1020.1
20260902075316 65 326 2.0 7.0 0.00 0.04 0.00 78 1020.1
20260902074818 64 262 2.0 6.0 0.00 0.04 0.00 79 1020.2
20260902074319 64 300 2.0 5.0 0.00 0.04 0.00 80 1020.2
20260902073819 64 265 3.0 5.0 0.00 0.04 0.00 81 1020.2
20260902073323 64 265 1.0 6.0 0.00 0.04 0.00 82 1020.1
20260902072823 63 262 4.0 6.0 0.00 0.04 0.00 82 1020.1
20260902072326 63 266 2.0 5.0 0.00 0.04 0.00 83 1019.9
20260902071829 63 278 3.0 5.0 0.00 0.04 0.00 83 1019.9
20260902071331 63 271 2.0 4.0 0.00 0.04 0.00 84 1019.8
20260902070834 62 215 3.0 6.0 0.00 0.04 0.00 86 1019.8
20260902070314 62 267 3.0 7.0 0.00 0.04 0.00 86 1019.9
20260902065816 62 276 4.0 7.0 0.00 0.04 0.00 87 1019.9
20260902065315 61 281 2.0 7.0 0.00 0.04 0.00 89 1019.9
20260902064817 61 282 4.0 7.0 0.00 0.04 0.00 89 1020.0
20260902064320 61 274 3.0 8.0 0.00 0.04 0.00 90 1019.9
20260902063822 60 248 4.0 8.0 0.00 0.04 0.00 90 1019.9
20260902063326 60 292 3.0 5.0 0.00 0.04 0.00 91 1020.0
20260902062829 60 278 3.0 6.0 0.00 0.04 0.00 91 1020.0
20260902062313 59 264 2.0 7.0 0.00 0.04 0.00 92 1020.0
20260902061815 59 276 3.0 7.0 0.00 0.04 0.00 92 1020.1
20260902061316 59 267 3.0 7.0 0.00 0.04 0.00 93 1020.1
20260902060821 58 266 4.0 7.0 0.00 0.04 0.00 92 1020.1
20260902060323 59 274 4.0 6.0 0.00 0.04 0.00 93 1020.1
20260902055845 58 263 3.0 7.0 0.00 0.04 0.00 93 1020.2
20260902055325 58 278 2.0 8.0 0.00 0.04 0.00 94 1020.2
20260902054829 58 275 4.0 8.0 0.00 0.04 0.00 94 1020.2
20260902054329 58 218 4.0 7.0 0.00 0.04 0.00 94 1020.1
20260902053832 58 265 3.0 8.0 0.00 0.04 0.00 93 1020.1
20260902053331 58 224 4.0 8.0 0.00 0.04 0.00 93 1020.1
20260902052851 58 276 4.0 6.0 0.00 0.04 0.00 94 1020.0
20260902052331 58 267 2.0 6.0 0.00 0.04 0.00 94 1020.0
20260902051852 58 273 3.0 6.0 0.00 0.04 0.00 94 1019.9
20260902051332 58 283 3.0 6.0 0.00 0.04 0.00 94 1019.8
20260902050832 57 271 3.0 5.0 0.00 0.04 0.00 95 1019.7
20260902050332 57 248 3.0 4.0 0.00 0.04 0.00 95 1019.6
20260902045852 57 261 2.0 4.0 0.00 0.04 0.00 95 1019.6
20260902045349 57 257 2.0 3.0 0.00 0.04 0.00 95 1019.5
20260902044829 57 260 1.0 3.0 0.00 0.04 0.00 95 1019.4
20260902044350 57 257 1.0 4.0 0.00 0.04 0.00 95 1019.4
20260902043812 57 262 2.0 3.0 0.00 0.04 0.00 95 1019.3
20260902043331 57 270 1.0 2.0 0.00 0.04 0.00 94 1019.2
20260902042830 57 270 0.0 3.0 0.00 0.04 0.00 94 1019.2
20260902042334 57 265 1.0 3.0 0.00 0.04 0.00 94 1019.1
20260902041815 57 262 1.0 3.0 0.00 0.04 0.00 94 1019.1
20260902041318 57 262 1.0 3.0 0.00 0.04 0.00 94 1019.1
20260902040821 57 264 1.0 3.0 0.00 0.04 0.00 94 1019.1
20260902040323 57 261 1.0 3.0 0.00 0.04 0.00 93 1019.1
20260902035825 57 265 1.0 3.0 0.00 0.04 0.00 93 1019.0
20260902035345 57 261 1.0 3.0 0.00 0.04 0.00 93 1019.0
20260902034824 58 262 1.0 3.0 0.00 0.04 0.00 93 1019.0
20260902034324 58 263 1.0 4.0 0.00 0.04 0.00 93 1019.1
20260902033825 58 262 2.0 4.0 0.00 0.04 0.00 93 1019.1
20260902033328 58 265 2.0 5.0 0.00 0.04 0.00 93 1019.1
20260902032851 58 255 2.0 5.0 0.00 0.04 0.00 93 1019.0
20260902032312 58 269 2.0 3.0 0.00 0.04 0.00 93 1019.0
20260902031835 58 276 2.0 3.0 0.00 0.04 0.00 92 1019.0
20260902031314 58 264 1.0 2.0 0.00 0.04 0.00 92 1018.9
20260902030816 58 262 1.0 2.0 0.00 0.04 0.00 92 1018.9
20260902030317 58 269 1.0 3.0 0.00 0.04 0.00 92 1018.9
20260902025819 59 264 1.0 3.0 0.00 0.04 0.00 92 1018.9
20260902025321 59 264 1.0 3.0 0.00 0.04 0.00 92 1019.0
20260902024822 59 262 1.0 3.0 0.00 0.04 0.00 91 1019.0
20260902024325 59 276 2.0 3.0 0.00 0.04 0.00 91 1019.0
20260902023828 59 269 1.0 4.0 0.00 0.04 0.00 91 1019.0
20260902023331 59 261 2.0 4.0 0.00 0.04 0.00 91 1019.2
20260902022837 59 250 2.0 4.0 0.00 0.04 0.00 91 1019.1
20260902022319 59 271 1.0 4.0 0.00 0.04 0.00 90 1019.1
20260902021820 60 269 2.0 4.0 0.00 0.04 0.00 90 1019.1
20260902021342 60 272 2.0 4.0 0.00 0.04 0.00 90 1019.1
20260902020842 60 267 2.0 4.0 0.00 0.04 0.00 90 1019.0
20260902020322 60 273 2.0 4.0 0.00 0.04 0.00 89 1019.1
20260902015843 60 266 2.0 4.0 0.00 0.04 0.00 89 1019.1
20260902015323 60 271 2.0 5.0 0.00 0.04 0.00 89 1019.1
20260902014844 61 263 3.0 5.0 0.00 0.04 0.00 88 1019.1
20260902014342 61 264 3.0 5.0 0.00 0.04 0.00 88 1019.1
20260902013814 61 268 2.0 5.0 0.00 0.04 0.00 88 1019.1
20260902013313 61 272 4.0 5.0 0.00 0.04 0.00 88 1019.1
20260902012813 61 267 3.0 7.0 0.00 0.04 0.00 88 1019.1
20260902012313 61 271 2.0 7.0 0.00 0.04 0.00 87 1019.0
20260902011813 61 271 3.0 5.0 0.00 0.04 0.00 87 1019.0
20260902011314 61 243 3.0 5.0 0.00 0.04 0.00 87 1019.0
20260902010813 61 255 2.0 5.0 0.00 0.04 0.00 87 1019.0
20260902010313 61 263 3.0 5.0 0.00 0.04 0.00 87 1019.0
20260902005814 61 272 2.0 5.0 0.00 0.04 0.00 87 1018.9
20260902005336 62 256 2.0 4.0 0.00 0.04 0.00 87 1018.9
20260902004816 61 243 1.0 5.0 0.00 0.04 0.00 87 1018.9
20260902004336 62 248 1.0 5.0 0.00 0.04 0.00 87 1018.9
20260902003817 62 275 2.0 4.0 0.00 0.04 0.00 87 1018.9
20260902003320 62 267 1.0 5.0 0.00 0.04 0.00 87 1018.9
20260902002823 62 259 2.0 5.0 0.00 0.04 0.00 87 1018.9
20260902002326 62 266 3.0 5.0 0.00 0.04 0.00 86 1019.0
20260902001829 62 266 2.0 5.0 0.00 0.04 0.00 87 1018.9
20260902001332 62 262 2.0 4.0 0.00 0.04 0.00 86 1018.9
20260902000814 62 264 2.0 5.0 0.00 0.04 0.00 86 1018.9
20260902000316 62 262 2.0 5.0 0.00 0.04 0.00 86 1019.0
20260901235819 62 246 2.0 5.0 0.00 0.04 0.00 86 1019.0
20260901235321 62 267 3.0 6.0 0.00 0.04 0.00 86 1018.9
20260901234824 62 260 2.0 6.0 0.00 0.04 0.00 86 1018.9
20260901234326 62 242 2.0 5.0 0.00 0.04 0.00 86 1018.9
20260901233915 62 262 2.0 5.0 0.00 0.04 0.00 86 1018.9
20260901233353 62 271 2.0 4.0 0.00 0.04 0.00 86 1018.9
20260901232813 62 267 2.0 4.0 0.00 0.04 0.00 86 1018.9
20260901232315 62 262 2.0 5.0 0.00 0.04 0.00 86 1018.9
20260901231327 62 209 3.0 7.0 0.00 0.04 0.00 86 1019.0
20260901230830 62 258 4.0 7.0 0.00 0.04 0.00 86 1018.9
20260901230331 62 259 3.0 6.0 0.00 0.04 0.00 86 1018.8
20260901225814 62 268 3.0 6.0 0.00 0.04 0.00 86 1018.8
20260901225317 62 261 3.0 6.0 0.00 0.04 0.00 86 1018.7
20260901224840 62 260 3.0 6.0 0.00 0.04 0.00 87 1018.7
20260901224322 62 264 3.0 6.0 0.00 0.04 0.00 87 1018.7
20260901223826 62 264 1.0 4.0 0.00 0.04 0.00 87 1018.7
20260901223327 62 271 2.0 4.0 0.00 0.04 0.00 88 1018.6
20260901222828 62 267 2.0 6.0 0.00 0.04 0.00 88 1018.6
20260901222327 62 274 3.0 6.0 0.00 0.04 0.00 88 1018.5
20260901221827 62 262 3.0 6.0 0.00 0.04 0.00 89 1018.5
20260901221348 62 259 3.0 4.0 0.00 0.04 0.00 90 1018.5
20260901220827 61 264 1.0 4.0 0.00 0.04 0.00 91 1018.5
20260901220327 61 271 1.0 3.0 0.00 0.04 0.00 91 1018.5
20260901215828 61 262 0.0 0.0 0.00 0.04 0.01 91 1018.5
20260901215326 61 262 0.0 0.0 0.00 0.04 0.01 91 1018.5
20260901214848 61 263 0.0 0.0 0.00 0.04 0.01 91 1018.4
20260901214330 61 268 0.0 0.0 0.00 0.04 0.01 91 1018.4
20260901213814 61 268 0.0 0.0 0.00 0.04 0.01 90 1018.4
20260901213316 62 268 0.0 0.0 0.00 0.04 0.01 90 1018.5
20260901212819 62 268 0.0 0.0 0.00 0.04 0.01 89 1018.5
20260901212322 62 268 0.0 0.0 0.00 0.04 0.01 89 1018.4
20260901211825 63 268 0.0 0.0 0.00 0.04 0.01 89 1018.3
20260901211329 63 268 0.0 2.0 0.00 0.04 0.01 88 1018.4
20260901210814 63 268 0.0 3.0 0.00 0.04 0.01 88 1018.5
20260901210336 63 269 2.0 3.0 0.00 0.04 0.01 88 1018.4
20260901205820 63 264 1.0 2.0 0.00 0.04 0.01 88 1018.5
20260901205323 63 264 0.0 3.0 0.00 0.04 0.01 87 1018.4
20260901204828 64 264 1.0 3.0 0.00 0.04 0.01 87 1018.4
20260901204331 64 267 2.0 3.0 0.00 0.04 0.01 86 1018.4
20260901203815 64 264 2.0 4.0 0.00 0.04 0.01 86 1018.4
20260901203317 64 283 2.0 5.0 0.00 0.04 0.01 86 1018.3
20260901202815 64 277 3.0 5.0 0.00 0.04 0.01 85 1018.3
20260901202335 64 271 2.0 6.0 0.00 0.04 0.01 86 1018.2
20260901201834 64 272 3.0 6.0 0.00 0.04 0.01 86 1018.3
20260901201313 64 278 2.0 6.0 0.00 0.04 0.01 87 1018.3
20260901200814 64 277 3.0 4.0 0.00 0.04 0.01 87 1018.3
20260901200334 63 271 1.0 5.0 0.00 0.04 0.01 88 1018.2
20260901195814 63 263 2.0 5.0 0.00 0.04 0.01 88 1018.2
20260901195316 63 265 1.0 4.0 0.00 0.04 0.01 88 1018.2
20260901194815 63 250 2.0 4.0 0.00 0.04 0.01 89 1018.2